Temperature
9 9 9 9 9 9 9 9 10 10 10 10 10 10 11 11 11 11 11 11 11 11 11 11 11 11 11 11 11 11 11 11 11 11 11 11 11 11 11 11 11 11 11
8 8 8 8 8 8 9 9 9 9 9 9 10 10 10 10 10 10 11 11 11 11 11 11 11 11 11 11 11 11 11 11 11 11 11 11 11 11 11 11 11 10 10
7 7 7 8 8 8 8 8 8 8 8 8 9 9 9 10 10 10 10 10 10 10 10 10 11 11 11 11 10 10 11 10 10 10 10 10 10 10 10 10 10 10 10
7 7 7 7 7 7 7 7 7 8 8 8 8 8 9 9 9 9 9 10 10 10 10 10 10 10 10 10 10 10 10 10 10 10 10 10 10 10 10 10 10 10 10
6 6 6 6 6 6 7 7 7 7 7 7 7 8 8 8 9 9 9 9 9 9 9 10 10 10 10 10 10 10 10 10 10 9 9 9 9 9 9 9 9 9 9
5 5 5 5 6 6 6 6 6 6 6 6 7 7 7 8 8 8 8 8 8 8 9 9 9 9 9 9 9 9 9 9 9 9 9 9 9 9 9 9 9 9 9
5 5 5 5 5 5 5 5 5 6 6 6 6 6 7 7 7 7 8 8 8 8 8 8 8 8 9 9 9 9 9 9 9 9 9 9 9 9 9 9 9 9 9
4 4 4 4 4 4 4 4 4 4 5 5 5 5 5 5 6 7 7 7 7 7 7 7 8 8 8 8 8 8 8 8 8 8 8 8 8 9 8 8 8 8 8
3 3 3 3 3 3 4 4 4 4 4 4 4 3 3 4 4 5 6 6 6 7 7 7 7 7 7 7 7 8 8 8 8 8 8 8 8 8 8 8 8 8 8
3 3 3 3 3 3 3 3 3 3 3 3 3 3 3 3 3 3 5 5 6 6 6 6 6 7 7 7 7 7 7 7 7 7 8 8 8 8 8 8 8 8 8
2 2 2 2 2 2 2 2 2 2 2 2 3 3 3 3 3 3 3 4 5 5 5 6 6 6 6 6 7 7 7 7 7 7 7 7 7 7 7 7 7 8 8
1 1 1 2 2 2 2 2 2 2 2 2 2 2 2 2 2 2 2 3 3 4 5 5 5 5 6 6 6 6 6 6 6 6 6 7 7 7 7 7 7 7 7
1 1 1 1 1 1 1 1 1 1 1 1 1 1 2 2 2 2 2 2 2 3 4 4 5 5 5 5 5 6 6 6 6 6 6 6 6 6 7 7 7 7 7
-0 0 0 0 0 0 1 1 1 1 1 1 1 1 1 1 1 2 2 2 2 2 3 3 4 4 4 5 5 5 5 5 5 5 6 6 6 6 6 6 6 6 6
-1 -1 -1 -0 -0 -0 0 0 0 0 0 0 1 1 1 1 1 1 1 1 1 1 2 3 3 4 4 4 4 4 4 5 5 5 5 5 5 6 6 6 6 6 6
-2 -1 -1 -1 -1 -1 -0 -1 -0 -0 -0 -0 0 0 0 0 0 1 1 1 1 1 1 2 3 3 3 4 4 4 4 4 4 5 5 5 5 5 5 5 5 5 5
-2 -2 -2 -2 -2 -1 -1 -1 -1 -1 -1 -1 -1 -0 -0 -0 -0 0 0 1 1 1 1 2 2 3 3 3 3 3 3 4 4 4 4 4 4 5 5 5 5 5 5
-3 -3 -3 -2 -2 -2 -2 -2 -2 -2 -2 -1 -1 -1 -1 -1 -0 -0 -0 -0 0 0 1 1 2 2 2 2 3 3 3 3 3 3 4 4 4 4 4 4 4 4 5
-3 -3 -3 -3 -3 -3 -3 -3 -3 -3 -2 -2 -2 -2 -1 -1 -1 -1 -1 -1 -0 -0 0 0 1 1 2 2 2 2 2 2 2 3 3 3 3 3 3 3 4 4 4
-4 -4 -4 -4 -4 -3 -3 -3 -3 -3 -3 -3 -3 -2 -2 -2 -2 -1 -1 -1 -1 -1 -0 0 0 1 1 1 1 2 2 2 2 2 2 2 2 3 3 3 3 3 3
-5 -5 -4 -4 -4 -4 -4 -4 -4 -4 -4 -3 -3 -3 -2 -2 -2 -2 -2 -1 -1 -1 -1 -0 -0 0 0 1 1 1 1 1 1 1 2 2 2 2 2 2 3 3 3
-5 -5 -5 -5 -5 -5 -5 -5 -5 -5 -4 -4 -4 -3 -3 -2 -2 -2 -2 -2 -1 -1 -1 -1 -1 -0 0 0 0 1 1 0 0 1 1 1 1 1 2 2 2 2 2
-6 -6 -6 -6 -5 -5 -5 -5 -5 -5 -5 -4 -4 -4 -4 -3 -3 -2 -2 -2 -2 -2 -2 -1 -1 -0 -0 -0 0 0 0 0 0 1 0 0 1 1 1 1 2 2 2
-6 -6 -6 -6 -6 -6 -6 -6 -6 -5 -5 -5 -5 -5 -4 -4 -3 -3 -3 -2 -2 -2 -2 -2 -1 -1 -1 -1 -1 -0 -0 -0 -0 -0 -0 -0 0 1 1 1 1 1 1
-7 -7 -7 -7 -7 -6 -6 -6 -6 -6 -6 -5 -5 -5 -5 -4 -4 -4 -4 -3 -3 -2 -2 -2 -2 -2 -1 -1 -1 -1 -1 -1 -1 -1 -1 -1 -0 -0 0 0 0 0 1
-7 -7 -7 -7 -7 -7 -6 -6 -6 -6 -6 -6 -5 -5 -5 -5 -5 -4 -4 -4 -3 -3 -3 -3 -2 -2 -2 -2 -2 -1 -1 -1 -1 -1 -1 -1 -1 -1 -1 -0 -0 -0 0
Wind_Speed
4 4 5 5 6 5 5 5 5 5 5 5 5 4 4 4 3 3 3 3 1 0 1 2 3 4 5 6 7 7 7 9 9 9 9 8 8 8 8 8 8 9 9
4 4 4 5 5 5 4 4 4 4 3 3 4 4 3 3 3 3 3 2 1 1 1 2 3 3 4 6 6 7 7 7 8 8 9 9 8 8 7 7 8 8 9
4 4 4 4 5 4 5 4 4 4 3 3 3 3 3 3 3 2 2 2 2 0 1 2 3 3 4 5 6 6 7 7 7 7 9 8 8 7 7 7 7 8 9
4 3 3 3 5 4 4 3 2 2 2 2 2 2 3 3 2 2 1 1 1 1 1 1 2 3 3 5 5 6 6 6 7 7 8 8 8 7 7 7 7 8 9
5 4 3 4 4 4 3 3 2 1 2 2 2 2 2 2 2 1 1 1 1 1 1 1 1 2 3 4 4 5 5 5 6 7 6 7 8 7 7 7 7 8 8
6 4 3 4 3 2 2 2 2 1 1 2 2 2 3 2 1 1 0 1 2 1 2 2 1 1 3 4 3 4 5 5 6 6 7 7 8 8 8 8 8 8 8
7 5 4 3 3 1 1 1 2 2 1 1 1 2 3 2 1 1 1 1 2 2 2 3 2 2 1 3 2 2 3 5 6 6 7 7 7 8 9 9 9 9 9
8 6 4 3 2 1 1 1 1 1 1 0 0 1 2 2 2 2 1 0 1 1 1 2 2 2 1 1 1 2 2 4 5 6 6 7 7 8 10 10 10 10 10
9 7 6 4 3 1 2 2 2 1 1 2 1 1 1 2 3 2 2 1 1 1 1 1 0 1 1 1 1 1 2 3 3 5 5 6 8 8 10 11 11 10 10
9 8 7 5 4 3 2 3 2 2 2 2 2 2 2 2 2 2 2 2 2 2 2 1 1 2 2 2 2 2 2 3 4 5 5 5 7 9 9 11 11 10 10
8 8 8 6 4 3 3 3 3 3 3 3 2 2 2 2 3 3 3 3 3 3 2 2 2 2 3 3 3 3 3 4 4 5 6 5 5 6 8 9 11 10 10
6 8 8 7 6 4 4 4 4 4 4 4 3 3 3 2 3 2 3 4 4 4 3 2 2 3 4 4 4 4 4 4 5 5 6 7 6 6 5 6 9 10 10
5 7 7 6 6 6 5 4 4 4 5 5 5 5 4 5 4 3 4 4 4 3 2 2 3 3 4 4 4 5 4 4 5 6 6 7 7 6 6 5 6 9 9
6 7 7 7 7 7 7 5 5 5 5 6 6 6 5 5 4 4 4 3 4 4 3 4 2 4 4 5 5 6 5 6 6 7 7 6 5 5 5 6 5 6 8
6 8 8 7 7 7 7 5 5 6 5 6 6 6 6 5 4 5 5 4 5 5 6 4 3 3 4 5 6 6 6 8 8 7 6 5 5 5 5 5 4 4 6
7 7 7 7 7 7 7 5 5 5 6 6 5 6 6 5 4 4 5 5 4 5 6 4 4 3 4 5 6 6 7 8 8 7 7 6 5 6 6 6 4 4 5
7 7 7 7 7 7 6 5 5 6 6 6 6 6 7 6 5 4 4 5 5 4 6 4 3 2 3 4 3 5 6 6 7 7 7 7 6 6 7 6 6 5 5
7 7 7 7 7 7 6 6 6 6 6 6 6 6 6 5 5 5 5 6 5 4 5 6 4 3 3 4 4 4 3 4 5 7 7 7 7 7 7 6 6 5 6
7 7 7 7 7 7 7 7 6 6 6 6 6 6 6 6 6 5 5 6 5 4 4 4 4 3 2 2 2 2 1 2 3 5 7 8 8 7 7 8 7 7 6
7 7 7 7 8 8 7 7 6 6 6 6 6 6 6 7 7 6 6 6 6 5 4 4 4 3 2 2 3 3 2 2 2 3 5 6 6 7 8 8 8 7 6
7 7 7 7 7 7 6 7 6 6 5 5 6 6 6 7 8 7 6 6 5 4 4 4 4 3 3 4 4 3 3 2 2 2 2 3 3 4 5 7 8 7 8
7 7 7 7 7 7 10 11 9 5 5 5 5 6 6 7 8 10 10 10 8 6 6 5 5 6 5 4 3 4 4 3 3 3 2 2 2 3 4 5 7 8 7
7 7 7 7 8 9 12 12 11 6 5 5 5 5 5 6 6 5 7 8 9 11 10 7 7 7 6 6 5 5 5 5 4 4 3 3 2 3 4 6 8 8 8
7 7 7 7 7 9 13 12 11 6 5 5 5 5 6 5 6 5 5 5 5 6 7 7 7 7 6 6 7 7 6 3 1 2 3 3 3 3 3 5 8 8 8
7 7 7 7 7 9 13 12 10 5 4 5 5 5 5 5 8 8 5 5 5 5 6 7 7 7 8 8 6 4 4 4 3 3 3 3 2 2 2 3 5 7 7
7 8 8 7 7 8 11 12 10 4 5 5 5 5 8 8 9 9 5 4 5 5 4 3 4 4 5 6 8 7 6 5 3 3 3 3 2 1 1 2 2 4 5
Wind_Direction
25 21 16 12 8 9 10 8 7 10 13 15 14 15 7 2 358 357 351 354 14 98 171 174 159 154 161 167 160 153 154 160 161 157 156 152 146 145 147 144 144 141 137
27 20 15 10 4 360 2 5 0 360 360 5 6 1 357 357 352 352 350 352 6 133 156 177 173 164 165 167 166 158 155 149 157 158 158 156 155 155 153 153 155 152 148
22 22 18 7 356 355 4 11 10 10 6 4 356 350 355 352 350 353 354 356 351 19 149 182 187 172 174 172 170 168 164 160 155 166 164 160 159 160 161 161 159 160 160
14 20 17 358 354 3 10 10 16 9 356 347 337 332 339 343 345 344 1 25 12 9 85 138 171 183 182 178 174 164 169 167 168 163 168 170 168 171 174 172 169 166 166
2 11 2 353 357 4 7 4 9 6 338 335 325 323 322 321 330 341 9 26 38 25 43 87 162 185 187 182 177 173 174 176 173 173 174 179 180 181 181 182 179 174 170
351 357 355 352 359 6 0 3 349 350 305 322 320 322 313 302 320 321 346 34 52 66 68 64 76 159 187 184 187 192 192 191 192 190 190 186 189 189 189 190 189 185 181
346 344 346 346 348 325 309 343 350 339 341 357 356 334 325 313 303 308 12 49 46 60 74 63 64 78 123 176 175 198 210 209 203 200 199 199 198 200 200 200 195 189 184
348 339 336 335 326 303 301 309 341 331 311 356 16 309 321 321 324 315 286 259 326 30 50 38 83 87 73 117 184 218 235 234 215 205 201 207 208 209 206 204 198 192 187
348 338 333 329 316 288 257 263 243 249 278 264 228 189 218 257 310 295 285 275 272 276 307 349 65 161 177 161 176 239 253 255 221 214 212 217 217 218 215 204 200 200 196
342 337 334 330 327 310 262 252 251 246 229 255 268 259 241 227 243 290 292 288 275 257 253 263 267 229 222 205 206 232 244 241 235 226 222 228 226 224 219 208 202 198 193
337 334 331 327 321 315 291 267 251 244 237 242 248 266 272 269 232 238 265 282 296 274 263 245 234 231 219 208 208 224 239 244 244 238 230 232 235 233 229 213 200 195 194
331 333 329 326 321 312 290 280 260 246 244 246 245 247 246 243 241 236 251 265 276 283 279 258 232 223 210 208 215 225 232 239 242 243 241 238 243 242 236 225 207 200 196
322 324 327 322 317 308 296 284 262 249 243 244 239 242 242 251 247 251 252 262 276 284 272 266 240 220 209 212 219 225 230 243 247 246 249 246 242 241 235 233 220 205 196
307 315 320 315 309 305 300 292 270 255 247 243 247 243 243 248 247 245 242 248 268 272 258 250 255 219 213 215 223 221 227 238 246 246 247 249 241 236 240 237 229 215 202
310 317 318 315 311 306 299 288 272 265 254 249 250 246 244 244 248 249 239 229 228 248 254 232 228 224 225 225 226 220 225 233 237 241 237 238 241 238 232 227 226 222 206
309 311 312 312 310 306 301 289 278 272 262 258 255 249 246 245 245 251 243 239 235 237 252 239 239 258 235 234 232 226 227 231 226 226 229 230 234 230 221 217 215 227 218
308 309 310 310 310 306 301 290 284 279 271 268 263 256 253 245 239 245 245 242 240 236 250 265 260 262 230 219 223 224 229 221 218 220 222 223 223 223 213 211 213 222 227
304 306 306 307 306 306 302 289 286 285 279 274 265 260 261 255 247 243 242 241 240 237 240 254 260 251 239 220 203 207 221 221 219 222 222 221 220 221 214 206 206 213 222
304 306 307 306 303 301 300 294 285 280 276 274 270 259 259 254 253 254 249 242 239 243 240 237 247 253 250 216 196 230 216 211 228 227 225 220 218 218 215 211 209 214 223
302 304 305 303 302 300 297 295 291 284 278 277 275 268 259 249 244 242 247 246 239 233 233 228 238 244 240 211 188 207 225 222 235 236 229 224 219 219 218 216 214 217 222
304 303 304 303 303 299 294 294 288 286 280 281 279 279 270 257 254 246 243 238 235 230 225 226 230 240 232 207 206 204 218 212 241 220 213 228 216 214 220 219 218 221 225
305 304 303 301 300 299 300 302 300 286 282 280 286 289 284 267 264 261 253 245 237 234 229 227 235 230 230 225 207 201 204 208 238 204 194 239 205 222 235 220 219 221 223
305 304 301 298 296 297 302 301 301 296 286 283 284 288 292 288 280 269 263 254 247 249 242 236 233 233 225 219 207 211 215 221 231 201 189 242 223 235 238 224 225 226 231
304 301 300 297 296 300 306 303 302 294 285 282 280 278 280 292 288 277 268 261 253 254 249 244 236 237 238 219 215 217 217 224 235 213 195 225 228 236 248 233 227 228 233
304 300 301 299 297 301 306 307 306 295 289 284 281 279 279 278 287 286 275 267 266 267 263 252 253 245 239 236 221 200 194 202 232 227 203 206 221 242 254 249 236 229 231
303 306 306 302 296 296 304 307 307 298 294 293 288 279 277 279 283 287 276 263 266 270 268 267 263 252 238 229 221 209 199 204 217 226 200 187 201 193 254 260 242 234 231
Height
1534 1533 1533 1533 1533 1533 1533 1533 1533 1533 1534 1534 1534 1535 1535 1536 1536 1537 1538 1538 1539 1540 1541 1542 1543 1544 1545 1546 1548 1549 1550 1551 1552 1553 1555 1556 1557 1558 1559 1560 1561 1562 1563
1532 1531 1531 1531 1531 1531 1531 1531 1531 1531 1531 1531 1532 1532 1533 1533 1533 1534 1535 1536 1536 1537 1538 1540 1541 1542 1543 1544 1545 1547 1548 1549 1550 1551 1552 1554 1555 1556 1557 1558 1559 1560 1561
1530 1529 1529 1529 1529 1528 1528 1528 1529 1528 1528 1529 1529 1529 1529 1530 1530 1531 1532 1532 1533 1534 1535 1537 1538 1539 1540 1542 1543 1544 1545 1546 1548 1549 1550 1551 1553 1554 1555 1556 1557 1558 1559
1528 1527 1527 1527 1526 1526 1525 1525 1525 1525 1525 1525 1526 1526 1526 1526 1527 1528 1528 1529 1530 1531 1532 1534 1535 1536 1537 1539 1540 1542 1543 1544 1545 1546 1548 1549 1550 1551 1553 1554 1555 1556 1557
1525 1524 1524 1524 1523 1523 1523 1522 1522 1522 1522 1522 1522 1522 1523 1523 1524 1524 1525 1526 1527 1528 1529 1530 1532 1533 1534 1536 1537 1538 1540 1541 1542 1544 1545 1546 1547 1549 1550 1551 1553 1554 1555
1522 1522 1521 1521 1521 1520 1519 1519 1519 1519 1519 1519 1519 1519 1519 1519 1520 1521 1521 1523 1523 1525 1525 1527 1528 1529 1531 1532 1534 1535 1537 1538 1539 1540 1542 1543 1544 1546 1547 1549 1550 1551 1553
1519 1519 1518 1518 1517 1517 1516 1516 1516 1515 1515 1516 1516 1515 1515 1516 1516 1517 1518 1519 1520 1521 1522 1523 1525 1526 1527 1529 1530 1532 1533 1534 1536 1537 1539 1540 1541 1543 1544 1546 1547 1548 1550
1516 1515 1515 1514 1514 1513 1513 1513 1512 1512 1512 1513 1513 1512 1512 1513 1512 1513 1514 1515 1517 1518 1519 1520 1521 1523 1524 1525 1526 1528 1530 1531 1532 1534 1535 1537 1538 1539 1541 1542 1544 1545 1546
1513 1512 1511 1511 1510 1509 1509 1509 1509 1509 1509 1510 1510 1511 1510 1509 1508 1509 1510 1511 1513 1514 1515 1516 1517 1519 1520 1521 1523 1524 1526 1527 1528 1530 1531 1533 1535 1536 1537 1539 1540 1542 1543
1510 1509 1508 1507 1506 1506 1505 1505 1505 1505 1506 1506 1507 1507 1508 1507 1507 1505 1506 1507 1508 1510 1511 1512 1513 1515 1516 1517 1519 1520 1522 1524 1525 1526 1528 1529 1531 1532 1534 1535 1536 1538 1539
1507 1506 1505 1503 1503 1502 1501 1501 1501 1501 1501 1502 1502 1503 1503 1504 1504 1504 1501 1502 1504 1505 1506 1507 1509 1510 1512 1513 1515 1516 1518 1520 1521 1522 1524 1525 1527 1528 1530 1531 1532 1534 1535
1504 1502 1501 1500 1499 1498 1498 1497 1497 1497 1497 1497 1498 1498 1498 1499 1499 1500 1498 1498 1499 1500 1501 1503 1504 1505 1507 1509 1510 1512 1514 1515 1516 1518 1519 1521 1522 1524 1525 1527 1528 1529 1531
1500 1498 1497 1496 1495 1494 1493 1493 1492 1492 1492 1493 1493 1493 1494 1494 1496 1496 1496 1494 1494 1494 1496 1497 1499 1500 1502 1504 1505 1507 1509 1510 1511 1513 1514 1516 1518 1519 1521 1522 1523 1525 1526
1496 1494 1493 1491 1491 1489 1488 1487 1487 1486 1487 1487 1487 1487 1488 1489 1490 1491 1491 1491 1490 1490 1491 1492 1493 1495 1497 1499 1500 1502 1504 1505 1507 1508 1509 1511 1513 1514 1516 1517 1519 1520 1522
1492 1490 1489 1487 1486 1484 1483 1482 1481 1481 1481 1481 1481 1481 1482 1482 1484 1485 1486 1487 1488 1486 1485 1486 1488 1489 1491 1493 1495 1497 1498 1500 1502 1503 1504 1506 1507 1509 1511 1512 1514 1516 1517
1488 1486 1484 1482 1480 1479 1478 1477 1475 1475 1475 1474 1475 1475 1475 1476 1477 1478 1479 1481 1482 1482 1481 1481 1483 1484 1486 1488 1490 1492 1493 1495 1496 1498 1499 1500 1502 1504 1506 1507 1509 1511 1513
1484 1481 1479 1477 1475 1474 1473 1471 1470 1469 1469 1468 1468 1468 1469 1470 1471 1472 1473 1474 1476 1477 1476 1476 1478 1479 1481 1482 1484 1486 1488 1490 1491 1493 1494 1496 1497 1499 1501 1503 1504 1506 1507
1479 1477 1475 1472 1470 1469 1467 1466 1464 1463 1462 1462 1462 1462 1463 1463 1464 1465 1467 1468 1469 1470 1471 1471 1472 1474 1475 1477 1478 1481 1482 1484 1486 1487 1489 1491 1492 1494 1496 1498 1499 1500 1502
1475 1472 1470 1467 1465 1463 1462 1460 1459 1458 1457 1457 1457 1457 1457 1457 1458 1459 1460 1462 1463 1464 1465 1467 1467 1469 1470 1472 1473 1475 1477 1479 1481 1482 1484 1485 1487 1489 1491 1492 1494 1495 1497
1470 1467 1465 1462 1460 1458 1457 1455 1454 1453 1452 1452 1452 1451 1451 1451 1452 1454 1455 1456 1457 1458 1460 1461 1462 1463 1465 1466 1468 1470 1471 1473 1475 1477 1479 1480 1482 1483 1485 1487 1489 1491 1492
1465 1462 1460 1457 1456 1454 1452 1451 1449 1448 1447 1447 1446 1446 1445 1446 1447 1448 1449 1450 1452 1453 1454 1455 1456 1457 1459 1460 1462 1464 1466 1468 1470 1471 1473 1474 1476 1478 1479 1481 1483 1485 1487
1460 1458 1455 1453 1451 1449 1448 1447 1446 1444 1443 1442 1441 1440 1440 1441 1441 1442 1444 1445 1446 1447 1448 1449 1450 1451 1452 1455 1456 1459 1461 1462 1463 1466 1467 1468 1471 1472 1474 1476 1478 1480 1482
1455 1453 1451 1448 1446 1445 1443 1442 1441 1440 1439 1437 1437 1436 1436 1436 1436 1437 1438 1439 1440 1442 1443 1444 1444 1445 1447 1449 1451 1453 1455 1457 1458 1460 1462 1462 1465 1466 1469 1470 1472 1474 1476
1451 1448 1446 1444 1442 1440 1439 1438 1436 1435 1434 1433 1432 1432 1431 1431 1432 1432 1433 1433 1434 1435 1437 1438 1439 1440 1442 1444 1446 1448 1450 1451 1453 1455 1457 1457 1459 1461 1463 1465 1467 1468 1470
1446 1444 1442 1440 1437 1436 1435 1433 1432 1430 1429 1429 1428 1428 1427 1427 1427 1428 1428 1428 1428 1429 1431 1432 1434 1435 1436 1439 1441 1442 1444 1446 1446 1448 1451 1452 1453 1455 1457 1459 1461 1463 1464
1442 1440 1438 1436 1434 1432 1430 1429 1428 1427 1425 1424 1424 1423 1423 1423 1423 1423 1424 1424 1423 1423 1425 1426 1427 1429 1430 1432 1434 1436 1437 1440 1441 1443 1445 1447 1448 1450 1451 1453 1455 1457 1459